Location: Star Hoppers Observatory
(42.7905°N, 83.6127°W)
Time: 16:42:22
(UTC-04:00)

Daily predictions for brighter satellites

Satellite Brightness Start Highest point End
(mag) Time Altitude Azimuth Time Altitude Azimuth Time Altitude Azimuth
METEOR-M 4.3 20:32:49 10° SSE 20:38:10 83° WSW 20:43:33 10° NNW
FREGAT/IRIS 4.5 20:39:33 10° SSW 20:42:28 36° W 20:45:24 10° NNW
Cosmos 2150 Rocket 4.3 20:39:50 10° N 20:44:51 49° ENE 20:49:51 10° SE
Tiangong 1 1.2 20:43:33 10° W 20:46:39 66° SSW 20:49:40 10° ESE
Cosmos 1697 Rocket 3.0 20:41:28 10° S 20:46:49 45° ESE 20:52:11 10° NE
Resurs 1-3 3.8 20:43:45 10° S 20:48:08 80° WSW 20:52:32 10° NNW
Cosmos 2123 Rocket 4.0 20:42:16 10° N 20:48:29 90° SW 20:54:40 10° S
Cosmos 1743 4.2 20:47:17 10° SE 20:50:02 19° E 20:52:47 10° NE
Cosmos 1898 Rocket 3.6 20:49:55 10° NNW 20:55:12 64° ENE 21:00:24 10° SSE
SL-16 R/B 3.8 21:00:03 12° ESE 21:01:21 13° E 21:03:41 10° ENE
Cosmos 468 Rocket 3.9 21:00:22 10° S 21:05:24 62° ESE 21:10:29 10° NNE
BREEZE-M DEB (TANK) 4.2 21:03:45 10° SW 21:07:46 79° SE 21:22:33 10° ENE
Cosmos 841 Rocket 4.3 21:05:27 10° SSE 21:09:53 29° E 21:14:19 10° NE
Cosmos 1980 Rocket 2.5 21:05:57 10° S 21:11:17 44° ESE 21:16:40 10° NE
RESURS DK-1 2.3 21:10:27 10° NNW 21:14:36 76° ENE 21:18:10 14° SSE
Resurs 01 Rocket 3.6 21:13:36 10° SSW 21:17:29 30° W 21:21:24 10° NW
H-2A R/B 3.0 21:15:04 10° S 21:18:57 73° W 21:22:55 10° NNW
Cosmos 1814 Rocket 4.0 21:14:01 10° S 21:19:19 70° ESE 21:24:36 10° NNE
FENGYUN 3A 4.0 21:15:44 10° S 21:21:03 69° WSW 21:26:25 10° NNW
Cosmos 1656 4.0 21:16:20 10° SSW 21:21:55 70° WNW 21:27:28 10° NNE
Cosmos 1153 Rocket 4.5 21:15:51 10° S 21:22:02 89° W 21:28:13 10° N
Cosmos 1726 Rocket 4.3 21:24:43 18° SE 21:27:10 32° E 21:31:05 10° NNE
Cosmos 1666 3.8 21:29:44 23° E 21:29:48 23° E 21:32:51 10° NE
YAOGAN 6 4.4 21:30:59 17° ENE 21:31:10 17° ENE 21:33:34 10° NNE
Cosmos 2263 Rocket 3.7 21:30:14 10° N 21:34:18 20° NE 21:36:35 16° E
Iridium 4 Rocket 3.7 21:32:26 10° N 21:37:19 64° W 21:41:45 10° S
Lacrosse 5 2.5 21:33:32 10° NW 21:38:27 51° SW 21:41:56 18° SSE
Cosmos 1802 Rocket 4.0 21:33:44 10° S 21:40:02 65° E 21:46:25 10° NNE
Cosmos 1500 3.9 21:37:18 10° SSW 21:40:59 54° W 21:44:43 10° N
Cosmos 1825 Rocket 3.5 21:37:00 10° N 21:41:25 73° E 21:44:12 22° SSE
Cosmos 2227 Rocket 4.5 21:37:15 10° NW 21:41:28 22° W 21:45:41 10° SSW
Cosmos 2016 Rocket 4.0 21:38:50 10° S 21:44:49 58° E 21:50:54 10° NNE
Cosmos 1340 2.5 21:42:07 10° N 21:45:55 74° E 21:47:32 33° SSE
Cosmos 2322 Rocket 2.8 21:43:34 22° SSE 21:46:09 33° ESE 21:51:06 10° NE
SJ-11-01 4.2 21:43:53 18° SSE 21:47:24 90° SE 21:52:07 10° NNW
SPOT 5 3.4 21:47:47 31° ESE 21:49:24 40° ENE 21:53:49 10° N
Envisat 2.9 21:49:39 26° SSE 21:52:34 71° ENE 21:57:38 10° N
Cosmos 1937 Rocket 4.1 21:48:25 10° NNW 21:53:35 55° WSW 21:58:05 14° S
Cosmos 1953 Rocket 3.5 21:49:15 10° N 21:53:44 72° E 21:55:42 33° SSE
Cosmos 2228 3.8 21:55:49 32° ENE 21:55:49 32° ENE 21:59:13 10° NNE
H-2A R/B 2.2 21:55:01 42° ESE 21:55:54 51° ENE 21:59:58 10° N
Cosmos 2297 Rocket 4.3 21:51:52 10° NW 21:56:13 23° WSW 22:00:34 10° SSW
Cosmos 2173 Rocket 4.1 21:50:14 10° S 21:56:37 84° W 22:02:58 10° N
USA 186 4.2 21:54:39 10° SW 21:56:51 19° W 21:58:57 10° NW
Meteor 2-9 Rocket 4.2 21:57:30 26° SSE 22:00:21 53° E 22:05:35 10° NNE
Cosmos 990 Rocket 4.3 21:55:54 10° NNW 22:01:07 64° WSW 22:04:27 22° S
Terra 3.9 22:03:43 13° ENE 22:03:43 13° ENE 22:05:43 10° NNE
CZ-4 DEB 3.8 22:03:21 30° SSW 22:04:24 43° W 22:07:26 10° NNW
Meteor 1-15 Rocket 4.4 22:02:12 29° SSE 22:05:03 53° E 22:10:44 10° NNE
Cosmos 2360 4.1 22:00:01 10° SSW 22:05:44 86° ESE 22:11:31 10° NNE
Cosmos 2227 4.4 22:03:46 10° NNW 22:09:30 72° WSW 22:12:25 30° S
Meteor 1-21 4.4 22:05:42 10° NNW 22:11:28 73° W 22:15:22 22° S
Cosmos 1758 Rocket 3.5 22:07:37 10° N 22:11:59 84° W 22:13:13 46° S
ERS-1 Rocket 3.4 22:08:47 20° S 22:12:10 59° W 22:17:08 10° NNW
OAO 2 Rocket 4.5 22:08:00 10° WSW 22:12:11 27° SSW 22:12:34 26° S
Cosmos 1864 Rocket 4.4 22:10:22 29° SSE 22:13:35 64° E 22:19:39 10° NNE
Cosmos 405 Rocket 4.1 22:13:37 10° N 22:15:53 27° NE 22:15:53 27° NE
BREEZE-M DEB (TANK) 2.0 22:14:58 10° WNW 22:17:23 83° SSW 22:17:24 83° SSW
Tiangong 1 3.5 22:20:30 10° WSW 22:21:38 16° WSW 22:21:38 16° WSW
BREEZE-M DEB (TANK) 4.5 22:08:59 10° SW 22:23:46 59° SSE 22:25:52 38° E
Cosmos 1939 Rocket 3.9 22:23:17 29° SSW 22:24:54 44° W 22:28:55 10° NNW
H-2A R/B 3.3 22:25:29 25° ENE 22:25:29 25° ENE 22:29:03 10° N
Cosmos 836 Rocket 4.5 22:20:13 10° SSW 22:25:31 85° WNW 22:30:52 10° NNE
deb Chang Zheng 4 3.6 22:21:07 10° NNE 22:25:36 86° W 22:26:47 49° SSW
Cosmos 1763 Rocket 4.2 22:21:13 10° SW 22:26:10 51° WNW 22:31:08 10° N
Tsikada Rocket 3.9 22:21:32 10° N 22:28:00 84° E 22:30:23 42° SSE
SL-08 RB Rocket 4.4 22:32:11 42° NE 22:32:11 42° NE 22:36:04 10° N
ARGOS 3.1 22:39:04 64° E 22:39:25 66° ENE 22:44:46 10° N
USA 215 4.1 22:37:03 27° ENE 22:39:57 40° NNE 22:45:57 10° NW
Cosmos 1816 Rocket 4.4 22:35:57 10° N 22:42:21 85° E 22:43:54 55° SSE
Cosmos 2058 Rocket 3.9 22:40:58 33° SW 22:42:39 51° WNW 22:47:04 10° N
Cosmos 1125 Rocket 3.6 22:38:20 10° NNW 22:43:31 67° WSW 22:44:17 58° SSW
SPOT 1/Viking Rocket 3.4 22:44:10 77° ESE 22:44:22 79° ENE 22:49:36 10° N
SL-16 R/B 2.1 22:41:43 31° SSW 22:44:35 88° WNW 22:50:19 10° NNE
NOAA 11 4.0 22:44:17 71° ESE 22:44:40 75° ENE 22:50:08 10° N
Cosmos 1844 Rocket 4.5 22:41:33 10° N 22:45:14 17° NE 22:45:36 17° NE
Cosmos 1725 Rocket 4.2 22:42:59 25° SSW 22:46:44 71° W 22:53:00 10° N
MetOp-B 4.3 22:46:30 54° SSW 22:47:33 68° WSW 22:52:54 10° NNW
Cosmos 2098 Rocket 4.4 22:43:33 12° SSW 22:49:43 57° W 22:55:04 10° N
ASTEX 1 4.0 22:45:20 10° N 22:50:13 54° W 22:51:52 37° SW
Cosmos 1980 Rocket 4.0 22:50:29 10° WSW 22:55:26 30° NW 23:00:26 10° N
Cosmos 2360 Rocket 3.6 22:58:32 25° NE 22:58:32 25° NE 23:00:59 10° NE
Cosmos 540 Rocket 3.4 22:55:48 81° NW 22:55:48 81° NW 23:00:55 10° NNE
Cosmos 2233 Rocket 4.0 23:06:51 62° SSW 23:07:55 78° W 23:14:13 10° N
Cosmos 372 Rocket 4.5 23:09:06 10° NNW 23:13:41 55° W 23:13:41 55° W
Cosmos 2263 Rocket 2.4 23:13:15 10° NNW 23:18:16 65° WNW 23:18:16 65° WNW
Cosmos 371 Rocket 4.3 23:20:22 41° N 23:20:22 41° N 23:23:37 10° NNE
Cosmos 2322 Rocket 3.5 23:25:05 11° SW 23:30:05 38° WNW 23:35:19 10° N
Terra 3.2 23:42:36 36° NNW 23:42:36 36° NNW 23:45:26 10° NNW
Meteor 1-24 Rocket 4.4 23:46:33 10° NNW 23:51:23 57° NW 23:51:23 57° NW
